Change the Weather History Date:

Saturday, July 13, 2013

  Actual Average (KVPZ) Record (KVPZ)
Temperature  
Mean Temperature 68 °F 73 °F  
Max Temperature 82 °F 83 °F 93 °F (2012)
Min Temperature 55 °F 63 °F 52 °F (2007)
Degree Days  
Heating Degree Days 0 0  
Month to date heating degree days 0  
Since 1 June heating degree days 41  
Since 1 July heating degree days 0  
Cooling Degree Days 4 8  
Month to date cooling degree days 104  
Year to date cooling degree days 315  
Since 1 June cooling degree days 268  
Growing Degree Days 18 (Base 50)    
Moisture  
Dew Point 60 °F    
Average Humidity 74    
Maximum Humidity 100    
Minimum Humidity 42    
Precipitation  
Precipitation 0.00 in 0.17 in 0.88 in (2010)
Month to date precipitation 1.77  
Year to date precipitation 18.66  
Sea Level Pressure  
Sea Level Pressure 30.16 in    
Wind  
Wind Speed 1 mph (East)    
Max Wind Speed 9 mph    
Max Gust Speed -    
Visibility 8 miles    
Events      
T = Trace of Precipitation, MM = Missing Value Source: NWS Daily Summary

Daily Weather History Graph

Daily Weather History Graph

Search for Another Location

Airport or City:

Trip Planner

Search our weather history database for the weather conditions in past years. The results will help you decide how hot, cold, wet, or windy it might be!

Date:

Astronomy

Jul. 13, 2013 Rise Set
Actual Time 5:24 AM CDT 8:21 PM CDT
Civil Twilight 4:51 AM CDT 8:54 PM CDT
Nautical Twilight 4:09 AM CDT 9:36 PM CDT
Astronomical Twilight 3:19 AM CDT 10:25 PM CDT
Moon 10:45 AM CDT (7/13) 10:56 PM CDT (7/13)
Length of Visible Light 16h 03m
Length of Day
14h 56m
Waxing Crescent, 26% of the Moon is Illuminated
Jul 13
Waxing Crescent
Jul 15
First Quarter
Jul 22
Full
Jul 29
Last Quarter
Aug 6
New

Hourly Weather History & Observations

Time (CDT) Temp. Heat Index Dew Point Humidity Pressure Visibility Wind Dir Wind Speed Gust Speed Precip Events Conditions
12:15 AM 59.0 °F - 59.0 °F 100% 30.13 in 5.0 mi Calm Calm - N/A   Clear
12:35 AM 59.0 °F - 59.0 °F 100% 30.13 in 10.0 mi Calm Calm - N/A   Clear
12:55 AM 59.0 °F - 59.0 °F 100% 30.13 in 4.0 mi Calm Calm - N/A   Clear
1:15 AM 59.0 °F - 59.0 °F 100% 30.13 in 10.0 mi Calm Calm - N/A   Clear
1:35 AM 59.0 °F - 57.2 °F 94% 30.14 in 3.0 mi Calm Calm - N/A   Clear
1:55 AM 57.2 °F - 55.4 °F 94% 30.13 in 5.0 mi Calm Calm - N/A   Clear
2:15 AM 57.2 °F - 55.4 °F 94% 30.14 in 4.0 mi Calm Calm - N/A   Clear
2:35 AM 59.0 °F - 57.2 °F 94% 30.14 in 10.0 mi Calm Calm - N/A   Clear
2:55 AM 57.2 °F - 55.4 °F 94% 30.15 in 4.0 mi Calm Calm - N/A   Clear
3:15 AM 55.4 °F - 55.4 °F 100% 30.15 in 4.0 mi Calm Calm - N/A   Clear
3:35 AM 55.4 °F - 55.4 °F 100% 30.15 in 7.0 mi Calm Calm - N/A   Clear
3:55 AM 55.4 °F - 53.6 °F 94% 30.15 in 2.5 mi Calm Calm - N/A   Clear
4:15 AM 55.4 °F - 55.4 °F 100% 30.15 in 2.5 mi Calm Calm - N/A   Clear
4:35 AM 55.4 °F - 53.6 °F 94% 30.15 in 1.8 mi Calm Calm - N/A   Mist
4:55 AM 55.4 °F - 55.4 °F 100% 30.16 in 7.0 mi Calm Calm - N/A   Clear
5:15 AM 55.4 °F - 53.6 °F 94% 30.17 in 3.0 mi Calm Calm - N/A   Clear
5:35 AM 55.4 °F - 55.4 °F 100% 30.17 in 5.0 mi Calm Calm - N/A   Clear
5:55 AM 55.4 °F - 53.6 °F 94% 30.17 in 5.0 mi Calm Calm - N/A   Clear
6:15 AM 57.2 °F - 55.4 °F 94% 30.15 in 10.0 mi Calm Calm - N/A   Clear
6:35 AM 59.0 °F - 57.2 °F 94% 30.15 in 10.0 mi Calm Calm - N/A   Clear
6:55 AM 60.8 °F - 59.0 °F 94% 30.16 in 10.0 mi Calm Calm - N/A   Clear
7:15 AM 62.6 °F - 60.8 °F 94% 30.17 in 10.0 mi Calm Calm - N/A   Clear
7:35 AM 66.2 °F - 60.8 °F 83% 30.19 in 10.0 mi Calm Calm - N/A   Clear
7:55 AM 68.0 °F - 60.8 °F 78% 30.19 in 10.0 mi Calm Calm - N/A   Clear
8:15 AM 69.8 °F - 60.8 °F 73% 30.18 in 10.0 mi ESE 3.5 mph - N/A   Clear
8:35 AM 71.6 °F - 60.8 °F 69% 30.18 in 10.0 mi East 3.5 mph - N/A   Clear
8:55 AM 71.6 °F - 60.8 °F 69% 30.19 in 10.0 mi Calm Calm - N/A   Clear
9:15 AM 73.4 °F - 60.8 °F 65% 30.18 in 10.0 mi Calm Calm - N/A   Clear
9:35 AM 73.4 °F - 59.0 °F 61% 30.18 in 10.0 mi East 3.5 mph - N/A   Clear
9:55 AM 75.2 °F - 59.0 °F 57% 30.17 in 10.0 mi East 3.5 mph - N/A   Clear
10:15 AM 77.0 °F - 59.0 °F 54% 30.17 in 10.0 mi ENE 3.5 mph - N/A   Clear
10:35 AM 77.0 °F - 59.0 °F 54% 30.17 in 10.0 mi East 5.8 mph - N/A   Clear
10:55 AM 77.0 °F - 57.2 °F 50% 30.18 in 10.0 mi East 3.5 mph - N/A   Clear
11:15 AM 78.8 °F - 57.2 °F 47% 30.17 in 10.0 mi SE 5.8 mph - N/A   Clear
11:35 AM 78.8 °F - 55.4 °F 44% 30.17 in 10.0 mi ESE 5.8 mph - N/A   Clear
11:55 AM 78.8 °F - 57.2 °F 47% 30.17 in 10.0 mi Calm Calm - N/A   Clear
12:15 PM 80.6 °F 80.8 °F 57.2 °F 45% 30.17 in 10.0 mi SE 6.9 mph - N/A   Scattered Clouds
12:35 PM 80.6 °F 80.8 °F 57.2 °F 45% 30.17 in 10.0 mi SE 5.8 mph - N/A   Scattered Clouds
12:55 PM 80.6 °F 80.8 °F 57.2 °F 45% 30.17 in 10.0 mi South 5.8 mph - N/A   Mostly Cloudy
1:15 PM 80.6 °F 81.1 °F 59.0 °F 48% 30.17 in 10.0 mi ESE 4.6 mph - N/A   Scattered Clouds
1:35 PM 80.6 °F 80.8 °F 57.2 °F 45% 30.16 in 10.0 mi ESE 5.8 mph - N/A   Scattered Clouds
1:55 PM 80.6 °F 80.5 °F 55.4 °F 42% 30.15 in 10.0 mi East 3.5 mph - N/A   Scattered Clouds
2:15 PM 82.4 °F 82.5 °F 59.0 °F 45% 30.15 in 10.0 mi East 5.8 mph - N/A   Scattered Clouds
2:35 PM 82.4 °F 82.5 °F 59.0 °F 45% 30.15 in 10.0 mi South 5.8 mph - N/A   Scattered Clouds
2:55 PM 82.4 °F 82.5 °F 59.0 °F 45% 30.14 in 10.0 mi ESE 3.5 mph - N/A   Scattered Clouds
3:15 PM 80.6 °F 81.5 °F 60.8 °F 51% 30.14 in 10.0 mi ESE 4.6 mph - N/A   Scattered Clouds
3:35 PM 80.6 °F 81.1 °F 59.0 °F 48% 30.14 in 10.0 mi Calm Calm - N/A   Scattered Clouds
3:55 PM 82.4 °F 82.5 °F 59.0 °F 45% 30.14 in 10.0 mi ESE 4.6 mph - N/A   Scattered Clouds
4:15 PM 80.6 °F 81.8 °F 62.6 °F 54% 30.14 in 10.0 mi North 3.5 mph - N/A   Scattered Clouds
4:35 PM 78.8 °F - 64.4 °F 61% 30.14 in 10.0 mi North 9.2 mph - N/A   Scattered Clouds
4:55 PM 75.2 °F - 62.6 °F 65% 30.14 in 10.0 mi North 9.2 mph - N/A   Scattered Clouds
5:15 PM 78.8 °F - 62.6 °F 57% 30.14 in 10.0 mi North 9.2 mph - N/A   Scattered Clouds
5:35 PM 77.0 °F - 62.6 °F 61% 30.14 in 10.0 mi North 3.5 mph - N/A   Scattered Clouds
5:55 PM 78.8 °F - 62.6 °F 57% 30.13 in 10.0 mi NNE 4.6 mph - N/A   Clear
6:15 PM 78.8 °F - 62.6 °F 57% 30.13 in 10.0 mi NNE 3.5 mph - N/A   Clear
6:35 PM 77.0 °F - 62.6 °F 61% 30.13 in 10.0 mi North 4.6 mph - N/A   Clear
6:55 PM 77.0 °F - 62.6 °F 61% 30.13 in 10.0 mi Calm Calm - N/A   Clear
7:15 PM 77.0 °F - 64.4 °F 65% 30.13 in 10.0 mi North 3.5 mph - N/A   Clear
7:35 PM 75.2 °F - 64.4 °F 69% 30.13 in 10.0 mi Calm Calm - N/A   Clear
7:55 PM 73.4 °F - 64.4 °F 73% 30.13 in 10.0 mi Calm Calm - N/A   Unknown
8:15 PM 71.6 °F - 64.4 °F 78% 30.14 in 10.0 mi Calm Calm - N/A   Clear
8:35 PM 71.6 °F - 64.4 °F 78% 30.15 in 10.0 mi Calm Calm - N/A   Clear
8:55 PM 69.8 °F - 64.4 °F 83% 30.15 in 10.0 mi Calm Calm - N/A   Clear
9:15 PM 69.8 °F - 64.4 °F 83% 30.17 in 10.0 mi Calm Calm - N/A   Clear
9:35 PM 68.0 °F - 64.4 °F 88% 30.17 in 10.0 mi Calm Calm - N/A   Clear
9:55 PM 66.2 °F - 64.4 °F 94% 30.17 in 4.0 mi Calm Calm - N/A   Clear
10:15 PM 64.4 °F - 64.4 °F 100% 30.17 in 2.5 mi Calm Calm - N/A   Clear
10:35 PM 66.2 °F - 64.4 °F 94% 30.18 in 7.0 mi Calm Calm - N/A   Scattered Clouds
10:55 PM 66.2 °F - 64.4 °F 94% 30.18 in 7.0 mi Calm Calm - N/A   Scattered Clouds
11:15 PM 66.2 °F - 64.4 °F 94% 30.18 in 7.0 mi Calm Calm - N/A   Mostly Cloudy
11:35 PM 66.2 °F - 64.4 °F 94% 30.18 in 7.0 mi Calm Calm - N/A   Mostly Cloudy
11:55 PM 64.4 °F - 64.4 °F 100% 30.18 in 10.0 mi Calm Calm - N/A   Scattered Clouds